GW3100 Weather Reports


Display with metric or nautical units.
time (UTC)temp
F
wind
direction
speed
MPH
gust
MPH
rain 1hr
in
rain 24hr
in
rain mn
in
humidity
%
barometer
mb
20260505170844 57 183 0.0 0.0 0.00 0.00 0.00 83 1018.4
20260505170342 57 190 0.0 0.0 0.00 0.00 0.00 84 1018.3
20260505165837 57 193 0.0 0.0 0.00 0.00 0.00 83 1018.2
20260505165333 57 194 0.0 0.0 0.00 0.00 0.00 84 1018.0
20260505164829 57 207 0.0 1.0 0.00 0.00 0.00 83 1018.2
20260505164325 57 196 0.0 0.0 0.00 0.00 0.00 84 1018.0
20260505163824 57 198 0.0 2.0 0.00 0.00 0.00 83 1018.1
20260505163322 57 195 0.0 0.0 0.00 0.00 0.00 84 1018.0
20260505162820 57 124 0.0 0.0 0.00 0.00 0.00 84 1018.1
20260505162316 57 194 0.0 1.0 0.00 0.00 0.00 84 1017.9
20260505161813 56 185 0.0 0.0 0.00 0.00 0.00 84 1018.2
20260505161310 56 196 0.0 1.0 0.00 0.00 0.00 85 1017.9
20260505160808 56 193 0.0 0.0 0.00 0.00 0.00 85 1018.0
20260505160306 56 198 0.0 1.0 0.00 0.00 0.00 86 1017.9
20260505153244 55 199 0.0 1.0 0.00 0.00 0.00 87 1018.0
20260505152741 55 178 0.0 1.0 0.00 0.00 0.00 87 1018.0
20260505152238 55 192 0.0 0.0 0.00 0.00 0.00 87 1017.9
20260505151732 55 211 0.0 1.0 0.00 0.00 0.00 87 1017.9
20260505151230 55 194 0.0 0.0 0.00 0.00 0.00 87 1017.9
20260505150726 55 190 0.0 0.0 0.00 0.00 0.00 88 1018.1
20260505150223 55 181 0.0 0.0 0.00 0.00 0.00 87 1017.8
20260505140651 54 197 0.0 0.0 0.00 0.00 0.00 88 1017.2
20260505140148 54 207 0.0 0.0 0.00 0.00 0.00 88 1017.5
20260505130112 54 190 0.0 1.0 0.00 0.00 0.00 87 1016.8
20260505124601 54 190 0.0 0.0 0.00 0.00 0.00 87 1016.9
20260505124058 54 198 0.0 0.0 0.00 0.00 0.00 87 1016.7
20260505123554 54 188 0.0 0.0 0.00 0.00 0.00 86 1016.8
20260505123050 54 196 0.0 0.0 0.00 0.00 0.00 86 1016.8
20260505122547 55 198 0.0 0.0 0.00 0.00 0.00 86 1017.0
20260505122044 54 205 0.0 0.0 0.00 0.00 0.00 86 1016.9
20260505121541 55 197 0.0 0.0 0.00 0.00 0.00 86 1017.0
20260505121038 54 192 0.0 0.0 0.00 0.00 0.00 86 1016.9
20260505120534 54 205 0.0 1.0 0.00 0.00 0.00 86 1016.8
20260505120029 55 188 0.0 0.0 0.00 0.00 0.00 86 1016.8
20260505115524 55 188 0.0 0.0 0.00 0.00 0.00 86 1016.7
20260505115022 55 200 0.0 0.0 0.00 0.00 0.00 86 1016.7
20260505114519 55 192 0.0 0.0 0.00 0.00 0.00 86 1016.7
20260505114015 55 196 0.0 0.0 0.00 0.00 0.00 86 1016.7
20260505113512 55 198 0.0 0.0 0.00 0.00 0.00 86 1016.7
20260505113009 55 190 0.0 0.0 0.00 0.00 0.00 85 1016.5
20260505112504 55 189 0.0 0.0 0.00 0.00 0.00 86 1016.5
20260505112002 55 192 0.0 2.0 0.00 0.00 0.00 86 1016.8
20260505111456 55 203 0.0 0.0 0.00 0.00 0.00 85 1016.7
20260505110953 55 210 0.0 0.0 0.00 0.00 0.00 85 1016.5
20260505110449 55 198 0.0 0.0 0.00 0.00 0.00 85 1016.6
20260505101920 55 188 0.0 0.0 0.00 0.00 0.00 85 1016.3
20260505101415 55 200 0.0 0.0 0.00 0.00 0.00 86 1016.3
20260505100911 55 193 0.0 0.0 0.00 0.00 0.00 86 1016.1
20260505100408 55 198 0.0 2.0 0.00 0.00 0.00 85 1016.3
20260505095903 55 195 0.0 2.0 0.00 0.00 0.00 85 1016.1
20260505095401 55 197 0.0 0.0 0.00 0.00 0.00 85 1016.1
20260505094857 55 186 0.0 1.0 0.00 0.00 0.00 85 1016.2
20260505094354 55 184 0.0 0.0 0.00 0.00 0.00 85 1016.2
20260505093849 55 194 0.0 0.0 0.00 0.00 0.00 85 1016.4
20260505093347 55 186 0.0 0.0 0.00 0.00 0.00 85 1015.9
20260505092844 55 188 0.0 2.0 0.00 0.00 0.00 85 1016.1
20260505092342 55 193 0.0 0.0 0.00 0.00 0.00 85 1016.1
20260505091839 55 196 0.0 0.0 0.00 0.00 0.00 85 1016.2
20260505091337 55 201 0.0 0.0 0.00 0.00 0.00 85 1015.8
20260505090835 55 197 0.0 0.0 0.00 0.00 0.00 84 1015.7
20260505090333 55 202 0.0 0.0 0.00 0.00 0.00 83 1015.7
20260505085830 56 195 0.0 0.0 0.00 0.00 0.00 83 1015.8
20260505085328 56 194 0.0 1.0 0.00 0.00 0.00 83 1015.5
20260505084826 56 194 0.0 2.0 0.00 0.00 0.00 83 1015.5
20260505084324 56 196 0.0 1.0 0.00 0.00 0.00 82 1015.6
20260505083820 56 197 0.0 2.0 0.00 0.00 0.00 82 1015.5
20260505083318 56 203 0.0 0.0 0.00 0.00 0.00 81 1015.8
20260505082814 56 198 0.0 0.0 0.00 0.00 0.00 81 1015.6
20260505082311 57 212 1.0 2.0 0.00 0.00 0.00 81 1015.6
20260505081807 57 191 0.0 0.0 0.00 0.00 0.00 81 1015.5
20260505081304 57 188 0.0 2.0 0.00 0.00 0.00 80 1015.5
20260505080801 57 194 0.0 1.0 0.00 0.00 0.00 80 1015.5
20260505080256 57 189 0.0 0.0 0.00 0.00 0.00 80 1015.6
20260505075752 57 195 0.0 2.0 0.00 0.00 0.00 80 1015.3
20260505075250 57 192 0.0 0.0 0.00 0.00 0.00 80 1015.4
20260505074747 57 197 0.0 1.0 0.00 0.00 0.00 80 1015.3
20260505074244 57 219 0.0 2.0 0.00 0.00 0.00 80 1015.3
20260505073742 57 171 1.0 1.0 0.00 0.00 0.00 80 1015.3
20260505073239 57 191 0.0 1.0 0.00 0.00 0.00 80 1014.9
20260505072736 57 187 0.0 2.0 0.00 0.00 0.00 80 1015.0
20260505072232 57 190 0.0 1.0 0.00 0.00 0.00 80 1014.9
20260505071727 58 259 0.0 2.0 0.00 0.00 0.00 79 1014.8
20260505071225 58 190 0.0 0.0 0.00 0.00 0.00 79 1014.9
20260505070722 58 197 0.0 2.0 0.00 0.00 0.00 79 1014.5
20260505070218 58 196 0.0 1.0 0.00 0.00 0.00 79 1014.6
20260505065714 59 205 0.0 1.0 0.00 0.00 0.00 79 1014.5
20260505065211 59 199 0.0 2.0 0.00 0.00 0.00 79 1014.6
20260505064708 59 198 0.0 0.0 0.00 0.00 0.00 78 1014.3
20260505064206 59 197 0.0 0.0 0.00 0.00 0.00 78 1014.2
20260505063704 60 194 0.0 2.0 0.00 0.00 0.00 78 1014.2
20260505063159 60 191 0.0 0.0 0.00 0.00 0.00 78 1014.2
20260505062655 60 191 1.0 2.0 0.00 0.00 0.00 77 1014.2
20260505062154 60 178 0.0 0.0 0.00 0.00 0.00 77 1014.1
20260505061650 60 192 0.0 1.0 0.00 0.00 0.00 76 1014.0
20260505061148 61 182 0.0 1.0 0.00 0.00 0.00 75 1014.2
20260505060645 61 192 0.0 0.0 0.00 0.00 0.00 75 1014.2
20260505060142 62 203 0.0 0.0 0.00 0.00 0.00 75 1013.9
20260505055637 62 202 0.0 0.0 0.00 0.00 0.00 74 1014.2
20260505055134 62 200 0.0 0.0 0.00 0.00 0.00 73 1013.7
20260505054632 63 182 0.0 2.0 0.00 0.00 0.00 73 1014.0
20260505054130 63 191 0.0 0.0 0.00 0.00 0.00 74 1013.8
20260505053627 64 196 0.0 0.0 0.00 0.00 0.00 73 1013.8
20260505053123 64 204 0.0 2.0 0.00 0.00 0.00 73 1013.6
20260505052620 65 194 0.0 0.0 0.00 0.00 0.00 73 1013.9
20260505052118 65 207 0.0 2.0 0.00 0.00 0.00 72 1013.8
20260505051614 65 203 0.0 1.0 0.00 0.00 0.00 72 1013.7
20260505051113 66 188 0.0 0.0 0.00 0.00 0.00 71 1013.8
20260505050610 66 205 0.0 0.0 0.00 0.00 0.00 70 1013.6
20260505050108 66 198 0.0 1.0 0.00 0.00 0.00 71 1013.5
20260505041538 67 199 0.0 1.0 0.00 0.00 0.00 73 1012.9
20260505041035 67 209 0.0 0.0 0.00 0.00 0.00 74 1012.8
20260505040532 67 201 0.0 0.0 0.00 0.00 0.00 74 1012.7
20260505040030 67 200 0.0 0.0 0.00 0.00 0.00 74 1012.5
20260505035525 67 201 0.0 0.0 0.00 0.00 0.00 74 1012.3
20260505035022 67 201 0.0 0.0 0.00 0.00 0.00 74 1012.7
20260505034519 67 195 0.0 0.0 0.00 0.00 0.00 73 1012.5
20260505034016 67 199 0.0 0.0 0.00 0.00 0.00 73 1012.3
20260505033513 67 194 0.0 0.0 0.00 0.00 0.00 73 1012.2
20260505033011 68 212 0.0 0.0 0.00 0.00 0.00 72 1012.2
20260505032508 68 199 0.0 0.0 0.00 0.00 0.00 72 1012.1
20260505032005 68 195 0.0 0.0 0.00 0.00 0.00 71 1012.0
20260505031502 68 196 0.0 0.0 0.00 0.00 0.00 70 1012.1
20260505030958 68 266 0.0 1.0 0.00 0.00 0.00 70 1012.1
20260505030455 69 200 0.0 0.0 0.00 0.00 0.00 69 1011.8
20260505025950 69 199 0.0 1.0 0.00 0.00 0.00 69 1012.1
20260505025447 69 181 0.0 0.0 0.00 0.00 0.00 69 1012.0
20260505024946 69 195 0.0 1.0 0.00 0.00 0.00 68 1011.9
20260505024443 69 196 0.0 0.0 0.00 0.00 0.00 68 1011.8
20260505023940 70 200 0.0 2.0 0.00 0.00 0.00 67 1011.8
20260505023437 70 192 0.0 1.0 0.00 0.00 0.00 67 1011.8
20260505022934 70 194 0.0 3.0 0.00 0.00 0.00 66 1011.8
20260505022432 71 194 1.0 3.0 0.00 0.00 0.00 65 1011.7
20260505021929 71 199 0.0 1.0 0.00 0.00 0.00 65 1011.7
20260505021425 71 221 0.0 1.0 0.00 0.00 0.00 64 1011.8
20260505020921 71 196 0.0 0.0 0.00 0.00 0.00 64 1011.8
20260505020416 71 252 1.0 3.0 0.00 0.00 0.00 63 1011.7
20260505015914 72 197 0.0 2.0 0.00 0.00 0.00 63 1011.7
20260505015411 72 194 1.0 2.0 0.00 0.00 0.00 62 1011.9
20260505014908 72 197 0.0 1.0 0.00 0.00 0.00 62 1011.8
20260505014405 72 196 0.0 1.0 0.00 0.00 0.00 62 1011.7
20260505013902 72 191 0.0 1.0 0.00 0.00 0.00 61 1011.8
20260505013358 73 199 0.0 1.0 0.00 0.00 0.00 60 1011.8
20260505012857 74 201 2.0 2.0 0.00 0.00 0.00 58 1011.7
20260505012355 74 192 0.0 2.0 0.00 0.00 0.00 59 1012.0
20260505011850 74 207 1.0 1.0 0.00 0.00 0.00 58 1011.8
20260505011347 74 115 2.0 2.0 0.00 0.00 0.00 59 1012.1
20260505010843 74 189 0.0 1.0 0.00 0.00 0.00 58 1011.9
20260505010339 75 192 0.0 2.0 0.00 0.00 0.00 57 1011.9
20260505005836 76 220 0.0 1.0 0.00 0.00 0.00 55 1011.9
20260505005333 75 208 0.0 0.0 0.00 0.00 0.00 56 1011.8
20260505004830 74 202 0.0 1.0 0.00 0.00 0.00 56 1012.0
20260505004326 75 165 0.0 3.0 0.00 0.00 0.00 56 1012.0
20260505003824 75 215 0.0 2.0 0.00 0.00 0.00 55 1012.0
20260505003321 75 216 2.0 3.0 0.00 0.00 0.00 55 1012.0
20260505002817 76 201 0.0 2.0 0.00 0.00 0.00 55 1012.1
20260505002314 76 202 0.0 3.0 0.00 0.00 0.00 55 1012.2
20260505001812 76 200 0.0 1.0 0.00 0.00 0.00 55 1012.1
20260505001309 76 285 0.0 1.0 0.00 0.00 0.00 54 1012.2
20260505000806 76 199 1.0 2.0 0.00 0.00 0.00 56 1012.2
20260505000304 76 234 1.0 2.0 0.00 0.00 0.00 53 1012.3
20260504235800 75 241 2.0 3.0 0.00 0.00 0.00 54 1012.2
20260504235256 75 191 0.0 3.0 0.00 0.00 0.00 54 1012.1
20260504234754 76 194 0.0 0.0 0.00 0.00 0.00 54 1012.2
20260504234252 75 152 1.0 3.0 0.00 0.00 0.00 55 1012.2
20260504233748 75 193 0.0 1.0 0.00 0.00 0.00 54 1012.3
20260504233243 75 274 1.0 3.0 0.00 0.00 0.00 53 1012.3
20260504232740 75 202 1.0 1.0 0.00 0.00 0.00 54 1012.3
20260504232237 75 217 2.0 4.0 0.00 0.00 0.00 53 1012.3
20260504231735 74 199 0.0 1.0 0.00 0.00 0.00 55 1012.5
20260504231231 73 182 0.0 3.0 0.00 0.00 0.00 55 1012.3
20260504230727 73 200 0.0 2.0 0.00 0.00 0.00 56 1012.5
20260504230226 74 192 0.0 2.0 0.00 0.00 0.00 54 1012.6
20260504225724 75 268 1.0 3.0 0.00 0.00 0.00 53 1012.7
20260504225220 75 200 0.0 4.0 0.00 0.00 0.00 54 1012.8
20260504224717 76 271 2.0 3.0 0.00 0.00 0.00 52 1012.7
20260504224214 75 218 0.0 2.0 0.00 0.00 0.00 55 1012.7
20260504223710 75 210 0.0 1.0 0.00 0.00 0.00 55 1012.7
20260504223206 75 244 1.0 3.0 0.00 0.00 0.00 53 1012.9
20260504222703 73 215 1.0 1.0 0.00 0.00 0.00 56 1013.0
20260504222200 73 200 0.0 1.0 0.00 0.00 0.00 58 1013.0
20260504221657 72 206 0.0 4.0 0.00 0.00 0.00 59 1013.1
20260504221155 72 207 0.0 3.0 0.00 0.00 0.00 59 1013.2
20260504220651 70 198 0.0 2.0 0.00 0.00 0.00 61 1013.2
20260504220149 71 178 1.0 2.0 0.00 0.00 0.00 62 1013.2
20260504215645 71 134 2.0 2.0 0.00 0.00 0.00 61 1013.5
20260504215142 70 206 0.0 3.0 0.00 0.00 0.00 61 1013.3
20260504214638 69 211 1.0 3.0 0.00 0.00 0.00 63 1013.5
20260504214134 69 193 1.0 2.0 0.00 0.00 0.00 62 1013.3
20260504213631 70 176 0.0 3.0 0.00 0.00 0.00 61 1013.6
20260504213128 71 201 0.0 0.0 0.00 0.00 0.00 61 1013.6
20260504212624 71 212 2.0 3.0 0.00 0.00 0.00 60 1013.7
20260504212121 71 172 0.0 2.0 0.00 0.00 0.00 60 1013.8
20260504211619 70 196 0.0 1.0 0.00 0.00 0.00 61 1013.9
20260504211115 70 203 2.0 2.0 0.00 0.00 0.00 60 1014.0
20260504210613 70 230 1.0 3.0 0.00 0.00 0.00 62 1014.1
20260504210109 70 249 1.0 2.0 0.00 0.00 0.00 61 1014.2
20260504205607 69 214 0.0 1.0 0.00 0.00 0.00 63 1014.1
20260504205104 69 223 1.0 2.0 0.00 0.00 0.00 63 1014.4
20260504204602 68 193 0.0 1.0 0.00 0.00 0.00 65 1014.5
20260504204100 68 136 1.0 2.0 0.00 0.00 0.00 66 1014.6
20260504203558 68 193 0.0 3.0 0.00 0.00 0.00 67 1014.4
20260504203056 68 203 0.0 1.0 0.00 0.00 0.00 65 1014.7
20260504202550 67 212 1.0 3.0 0.00 0.00 0.00 65 1014.3
20260504202048 67 202 1.0 2.0 0.00 0.00 0.00 67 1014.5
20260504201544 67 151 0.0 1.0 0.00 0.00 0.00 67 1014.7
20260504201037 66 241 2.0 3.0 0.00 0.00 0.00 67 1014.8
20260504200533 67 202 1.0 3.0 0.00 0.00 0.00 66 1014.9
20260504200031 66 169 2.0 3.0 0.00 0.00 0.00 67 1014.9
20260504195526 66 228 0.0 3.0 0.00 0.00 0.00 68 1015.0
20260504195023 65 168 0.0 1.0 0.00 0.00 0.00 69 1015.1
20260504194520 65 241 2.0 3.0 0.00 0.00 0.00 68 1014.8
20260504194015 64 222 1.0 1.0 0.00 0.00 0.00 69 1015.0
20260504193512 65 228 0.0 1.0 0.00 0.00 0.00 70 1015.1
20260504193011 64 190 0.0 3.0 0.00 0.00 0.00 70 1015.1
20260504192509 64 186 0.0 0.0 0.00 0.00 0.00 70 1015.2
20260504192007 62 199 0.0 1.0 0.00 0.00 0.00 72 1015.1
20260504191504 62 198 0.0 2.0 0.00 0.00 0.00 74 1015.2
20260504191000 63 227 1.0 3.0 0.00 0.00 0.00 73 1015.3
20260504190456 62 173 0.0 0.0 0.00 0.00 0.00 75 1015.2
20260504185952 62 126 0.0 4.0 0.00 0.00 0.00 75 1015.2
20260504185449 61 194 0.0 2.0 0.00 0.00 0.00 76 1015.3
20260504184946 62 225 1.0 1.0 0.00 0.00 0.00 75 1015.6
20260504184441 61 201 0.0 1.0 0.00 0.00 0.00 76 1015.5
20260504183937 61 192 0.0 1.0 0.00 0.00 0.00 75 1015.5
20260504183435 61 210 0.0 0.0 0.00 0.00 0.00 76 1015.4
20260504182933 61 229 1.0 3.0 0.00 0.00 0.00 77 1015.4
20260504182429 60 197 0.0 1.0 0.00 0.00 0.00 78 1015.2
20260504181926 60 186 0.0 0.0 0.00 0.00 0.00 77 1015.4
20260504181423 60 190 0.0 1.0 0.00 0.00 0.00 78 1015.5
20260504180922 60 203 0.0 2.0 0.00 0.00 0.00 77 1015.5
20260504180421 60 181 0.0 2.0 0.00 0.00 0.00 78 1015.4
20260504175918 59 213 2.0 4.0 0.00 0.00 0.00 78 1015.4
20260504175415 59 192 2.0 4.0 0.00 0.00 0.00 79 1015.3
20260504174913 59 197 0.0 0.0 0.00 0.00 0.00 79 1015.4
20260504174410 59 195 0.0 1.0 0.00 0.00 0.00 80 1015.4
20260504173908 59 204 0.0 2.0 0.00 0.00 0.00 80 1015.4
20260504173403 58 211 0.0 2.0 0.00 0.00 0.00 81 1015.4
20260504172901 58 240 1.0 3.0 0.00 0.00 0.00 80 1015.3
20260504172357 58 199 0.0 3.0 0.00 0.00 0.00 80 1015.3
20260504171853 58 230 1.0 2.0 0.00 0.00 0.00 81 1015.6
20260504171351 58 195 0.0 2.0 0.00 0.00 0.00 81 1015.4